ONEWEB-0292, 49186

Orbit data source: Space-Track

ONEWEB-0292, 49186 is a payload satellite owned by One Web (NAA) (UK) in LEO that was launched on Tue, 14 Sep 2021 UTC via a SOYUZ-2-1B launch vehicle from the Tyuratam Missile And Space Complex (TTMTR). Payload-class satellites include a variety of spacecraft equipped with specific instruments for various scientific and technological missions. These include communications satellites like Starlink; space stations such as the ISS; scientific satellites like the Hubble; Earth observation satellites from companies like Planet Labs, Umbra, and HawkEye 360; GPS; miniature CubeSats for education and research; and military/defense satellites.

Loading next visibility...
Identifier
49186, 2021-083A
Orbit
LEO
Country
Flag of UKUK
Related business
Manufacturer
One Web
Mission
Operational Commercial Communications
Bus & Motor
ARROW, Unknown motor
Mass
148 kg wet, ~140 kg dry
Launch date (UTC)
2021-09-14 (5 years ago)
Launch vehicle
SOYUZ-2-1B
Launch site
Tyuratam Missile And Space Complex (TTMTR)
Object type
Payload
Rocket body
Debris
Shape & HBR
Trap Box + 2 Pan, 6.7 m
Radar Cross Section
3.464 m², Large (>1 m²)

Expand to show TLE details & history
Last TLE update: 2 days ago

TLE from 2 days ago
0 ONEWEB-0292
1 49186U 21083A   26171.44119584 -.00000252  00000-0 -72623-3 0  9999
2 49186  87.8955 319.5899 0001921  92.2244 267.9106 13.13471699231351
Epoch: 2026-06-20T10:35Z
TLE epoch observation values (Epoch: 2026-06-20T10:35:19.320Z)
Latitude
0.00006°
Longitude
-107.89637°
Altitude
1,212.704 km
Speed
7.248 km/s
True Right ascension
21h 18m 21s
True Declination
0° 00' 00"
Sunlit
Object was in full shadow at epoch
Visualization orbit readout
Latitude
Unknown
Longitude
Unknown
Altitude
Unknown
Speed
Unknown
Apparent Right ascension
Unknown
Apparent Declination
Unknown
Sunlit
N/A
Visualization observer readout
Local Sidereal Time
00:50:50
Azimuth
Unknown
Elevation
Unknown
Doppler factor
Unknown
Orbital elements
Apogee altitude
1,208.331 km
Perigee altitude
1,205.417 km
Semi-major axis
7,585.011 km
Eccentricity
0.00019
Inclination
87.8955°
RAAN
319.5899°
Arg. of periapsis
92.2244°
True anomaly
267.8886°
Mean anomaly
267.9106°
Eccentric anomaly
267.8996°
Mean motion
3.28556 °/min
Orbital period
109.57 mins
BSTAR
-0.00072623
Loading maneuver chart data...
Computing Atmospheric mass density...
Loading historical data...
Loading historical data...
Loading historical data...
Loading historical data...
Loading historical data...
Loading historical data...
Loading historical data...

Documentation

Showing up to 5 results
|